FW5373 Weather Reports


time (UTC)temp
C
wind
direction
speed
KPH
gust
KPH
rain 1hr
cm
rain 24hr
cm
rain mn
cm
humidity
%
barometer
mb
20260906131609 22 360 3.2 12.9 0.00 0.00 0.00 92 1017.4
20260906130106 22 360 4.8 12.9 0.00 0.00 0.00 92 1017.6
20260906124606 22 360 3.2 12.9 0.00 0.00 0.00 92 1017.5
20260906123107 22 360 1.6 9.7 0.00 0.00 0.00 92 1016.9
20260906121614 22 360 1.6 9.7 0.00 0.00 0.00 93 1016.7
20260906120108 22 360 1.6 12.9 0.00 0.00 0.00 93 1016.4
20260906114600 22 360 0.0 6.4 0.00 0.00 0.00 93 1016.2
20260906113055 22 0 0.0 6.4 0.00 0.00 0.00 94 1016.0
20260906111601 22 360 1.6 8.0 0.00 0.00 0.00 94 1016.0
20260906110057 22 360 0.0 6.4 0.00 0.00 0.00 94 1015.9
20260906104600 21 360 0.0 6.4 0.00 0.00 0.00 95 1015.8
20260906103104 21 0 0.0 9.7 0.00 0.00 0.00 95 1015.7
20260906101620 21 0 0.0 4.8 0.00 0.00 0.00 94 1015.4
20260906100103 21 360 3.2 6.4 0.00 0.00 0.00 94 1015.4
20260906094607 21 360 3.2 8.0 0.00 0.00 0.00 94 1015.3
20260906093059 21 360 3.2 12.9 0.00 0.00 0.00 94 1015.4
20260906091600 21 360 4.8 14.5 0.00 0.00 0.00 93 1015.3
20260906090106 21 360 3.2 12.9 0.00 0.00 0.00 93 1015.4
20260906084606 21 360 4.8 16.1 0.00 0.00 0.00 93 1015.3
20260906083105 21 360 6.4 14.5 0.00 0.00 0.00 92 1015.1
20260906081602 21 360 4.8 20.9 0.00 0.00 0.00 92 1015.2
20260906080203 22 360 3.2 12.9 0.00 0.00 0.00 92 1015.2
20260906074559 22 360 3.2 14.5 0.00 0.00 0.00 91 1015.4
20260906073100 22 360 4.8 17.7 0.00 0.00 0.00 91 1015.6
20260906071605 22 360 3.2 22.5 0.00 0.00 0.00 89 1015.6
20260906070057 22 360 4.8 14.5 0.00 0.00 0.00 89 1015.7
20260906064558 23 360 3.2 16.1 0.00 0.00 0.00 89 1015.9
20260906063100 23 360 3.2 17.7 0.00 0.00 0.00 87 1015.7
20260906061559 23 360 6.4 20.9 0.00 0.00 0.00 87 1015.6
20260906060136 23 0 4.8 12.9 0.00 0.00 0.00 87 1015.5
20260906054612 23 360 1.6 9.7 0.00 0.00 0.00 86 1015.4
20260906053059 24 360 3.2 8.0 0.00 0.00 0.00 86 1015.2
20260906051559 24 51 3.2 16.1 0.00 0.00 0.00 85 1015.0
20260906044559 25 55 1.6 17.7 0.00 0.00 0.00 85 1015.0
20260906043054 25 111 1.6 14.5 0.00 0.00 0.00 85 1014.6
20260906041559 25 87 4.8 14.5 0.00 0.00 0.00 85 1014.6
20260906040105 26 54 4.8 14.5 0.00 0.00 0.00 84 1014.5
20260906034604 26 30 4.8 17.7 0.00 0.00 0.00 84 1014.6
20260906033058 27 67 4.8 16.1 0.00 0.00 0.00 83 1014.4
20260906031557 27 43 4.8 14.5 0.00 0.00 0.00 83 1014.3
20260906030059 28 54 11.3 24.1 0.00 0.00 0.00 82 1014.1
20260906024557 28 59 6.4 20.9 0.00 0.00 0.00 81 1014.0
20260906023058 29 40 6.4 16.1 0.00 0.00 0.00 80 1013.6
20260906021606 29 34 8.0 17.7 0.00 0.00 0.00 79 1013.4
20260906014602 30 86 3.2 12.9 0.00 0.00 0.00 78 1012.9
20260906013058 30 44 4.8 14.5 0.00 0.00 0.00 78 1012.9
20260906011555 30 42 1.6 8.0 0.00 0.00 0.00 77 1012.7
20260906010140 31 48 3.2 6.4 0.00 0.00 0.00 76 1012.6
20260906004616 31 69 0.0 3.2 0.00 0.00 0.00 74 1012.3
20260906003102 31 0 1.6 6.4 0.00 0.00 0.00 73 1012.1
20260906001607 31 63 1.6 6.4 0.00 0.00 0.00 72 1012.2
20260906000100 32 29 3.2 9.7 0.00 0.00 0.00 71 1012.2
20260905234604 32 58 1.6 6.4 0.00 0.00 0.00 70 1012.2
20260905233059 33 64 1.6 16.1 0.00 0.00 0.00 67 1012.5
20260905231559 33 40 1.6 12.9 0.00 0.00 0.00 64 1012.4
20260905224602 34 15 4.8 12.9 0.00 0.00 0.00 62 1012.2
20260905223104 34 355 1.6 9.7 0.00 0.00 0.00 63 1012.2
20260905221608 34 42 4.8 14.5 0.00 0.00 0.00 61 1012.1
20260905220100 35 0 3.2 16.1 0.00 0.00 0.00 61 1012.1
20260905214601 35 30 3.2 16.1 0.00 0.00 0.00 59 1012.1
20260905213101 36 53 3.2 9.7 0.00 0.00 0.00 58 1012.1
20260905211607 36 22 3.2 17.7 0.00 0.00 0.00 59 1012.2
20260905210120 35 355 3.2 12.9 0.00 0.00 0.00 58 1012.2
20260905204602 35 43 3.2 12.9 0.00 0.00 0.00 58 1012.3
20260905203058 36 306 1.6 9.7 0.00 0.00 0.00 56 1012.5
20260905201559 36 5 3.2 12.9 0.00 0.00 0.00 55 1012.5
20260905200122 36 28 4.8 14.5 0.00 0.00 0.00 53 1012.5
20260905194603 36 290 4.8 14.5 0.00 0.00 0.00 53 1012.7
20260905193102 36 28 1.6 14.5 0.00 0.00 0.00 56 1012.7
20260905191602 36 26 3.2 17.7 0.00 0.00 0.00 55 1012.8
20260905190104 36 36 3.2 16.1 0.00 0.00 0.00 56 1013.0
20260905184611 36 277 1.6 6.4 0.00 0.00 0.00 55 1013.1
20260905183107 35 268 3.2 9.7 0.00 0.00 0.00 57 1013.3
20260905181604 35 5 3.2 11.3 0.00 0.00 0.00 60 1013.4
20260905174603 34 30 4.8 11.3 0.00 0.00 0.00 58 1013.6
20260905173103 34 312 4.8 12.9 0.00 0.00 0.00 58 1013.6
20260905171602 33 313 1.6 11.3 0.00 0.00 0.00 59 1013.7
20260905170100 33 284 1.6 9.7 0.00 0.00 0.00 61 1013.9
20260905164557 33 51 1.6 9.7 0.00 0.00 0.00 62 1014.0
20260905163104 33 44 1.6 8.0 0.00 0.00 0.00 64 1014.0
20260905161557 33 360 1.6 9.7 0.00 0.00 0.00 65 1014.0
20260905160059 33 30 1.6 8.0 0.00 0.00 0.00 65 1014.2
20260905154605 32 257 0.0 6.4 0.00 0.00 0.00 65 1014.1
20260905153103 32 311 1.6 4.8 0.00 0.00 0.00 63 1014.0
20260905151628 32 284 1.6 8.0 0.00 0.00 0.00 64 1013.9
20260905150058 32 0 0.0 4.8 0.00 0.00 0.00 67 1013.8
20260905144558 31 252 0.0 4.8 0.00 0.00 0.00 70 1013.8
20260905143103 30 0 0.0 6.4 0.00 0.00 0.00 72 1013.9
20260905141558 29 275 3.2 9.7 0.00 0.00 0.00 74 1013.9
20260905140058 27 334 1.6 4.8 0.00 0.00 0.00 80 1014.0
20260905134604 26 0 0.0 3.2 0.00 0.00 0.00 85 1013.9
20260905133056 25 38 0.0 1.6 0.00 0.00 0.00 90 1013.9